Time,TemperatureF,DewpointF,PressureIn,WindDirection,WindDirectionDegrees,WindSpeedMPH,WindSpeedGustMPH,Humidity,HourlyPrecipIn,Conditions,Clouds,dailyrainin,SoftwareType,DateUTC
2013-04-05 00:05:00,40.6,36.0,30.11,SW,229,17.0,30.0,82,0.00,,,0.00,weatherlink.com 1.10,2013-04-05 04:05:00,
2013-04-05 00:20:00,40.7,35.0,30.10,WSW,253,20.0,29.0,81,0.00,,,0.00,weatherlink.com 1.10,2013-04-05 04:20:00,
2013-04-05 00:35:00,40.9,36.0,30.11,SW,233,22.0,30.0,81,0.00,,,0.00,weatherlink.com 1.10,2013-04-05 04:35:00,
2013-04-05 00:50:00,41.1,36.0,30.11,WSW,245,28.0,30.0,82,0.00,,,0.00,weatherlink.com 1.10,2013-04-05 04:50:00,
2013-04-05 01:05:00,41.1,37.0,30.11,West,269,19.0,31.0,84,0.00,,,0.00,weatherlink.com 1.10,2013-04-05 05:05:00,
2013-04-05 01:20:00,41.0,36.0,30.10,West,274,27.0,33.0,83,0.00,,,0.00,weatherlink.com 1.10,2013-04-05 05:20:00,
2013-04-05 01:35:00,41.0,37.0,30.08,WSW,252,25.0,32.0,84,0.00,,,0.00,weatherlink.com 1.10,2013-04-05 05:35:00,
2013-04-05 01:51:00,41.1,37.0,30.08,WSW,250,24.0,27.0,86,0.00,,,0.00,weatherlink.com 1.10,2013-04-05 05:51:00,
2013-04-05 02:06:00,41.1,37.0,30.08,SW,219,17.0,29.0,86,0.00,,,0.00,weatherlink.com 1.10,2013-04-05 06:06:00,
2013-04-05 02:21:00,41.1,37.0,30.07,WSW,252,24.0,32.0,85,0.00,,,0.00,weatherlink.com 1.10,2013-04-05 06:21:00,
2013-04-05 02:36:00,41.2,37.0,30.06,WSW,250,23.0,28.0,85,0.00,,,0.00,weatherlink.com 1.10,2013-04-05 06:36:00,
2013-04-05 02:51:00,41.3,37.0,30.05,WSW,245,19.0,26.0,86,0.00,,,0.00,weatherlink.com 1.10,2013-04-05 06:51:00,
2013-04-05 03:06:00,41.4,38.0,30.05,West,260,23.0,26.0,86,0.00,,,0.00,weatherlink.com 1.10,2013-04-05 07:06:00,
2013-04-05 03:36:00,41.3,37.0,30.03,SW,222,13.0,23.0,86,0.00,,,0.00,weatherlink.com 1.10,2013-04-05 07:36:00,
2013-04-05 04:36:00,41.3,38.0,30.02,WSW,241,20.0,22.0,88,0.00,,,0.00,weatherlink.com 1.10,2013-04-05 08:36:00,
2013-04-05 05:06:00,41.2,38.0,30.02,WSW,246,18.0,21.0,88,0.00,,,0.00,weatherlink.com 1.10,2013-04-05 09:06:00,
2013-04-05 05:21:00,41.2,38.0,30.02,WSW,247,17.0,20.0,88,0.00,,,0.00,weatherlink.com 1.10,2013-04-05 09:21:00,
2013-04-05 05:36:00,41.2,38.0,30.01,WSW,250,16.0,23.0,89,0.00,,,0.00,weatherlink.com 1.10,2013-04-05 09:36:00,
2013-04-05 05:51:00,41.1,38.0,30.00,WSW,256,16.0,21.0,89,0.00,,,0.00,weatherlink.com 1.10,2013-04-05 09:51:00,
2013-04-05 06:06:00,41.1,38.0,29.98,WSW,248,16.0,19.0,90,0.00,,,0.00,weatherlink.com 1.10,2013-04-05 10:06:00,
2013-04-05 06:21:00,41.1,38.0,29.98,WSW,246,14.0,19.0,90,0.00,,,0.00,weatherlink.com 1.10,2013-04-05 10:21:00,
2013-04-05 06:36:00,41.2,38.0,29.98,WNW,290,7.0,21.0,88,0.00,,,0.00,weatherlink.com 1.10,2013-04-05 10:36:00,
2013-04-05 06:51:00,41.3,38.0,29.98,WSW,248,18.0,21.0,89,0.00,,,0.00,weatherlink.com 1.10,2013-04-05 10:51:00,
2013-04-05 07:06:00,41.5,38.0,29.99,WSW,239,17.0,22.0,88,0.00,,,0.00,weatherlink.com 1.10,2013-04-05 11:06:00,
2013-04-05 07:21:00,41.7,38.0,29.99,SW,236,16.0,20.0,87,0.00,,,0.00,weatherlink.com 1.10,2013-04-05 11:21:00,
2013-04-05 07:51:00,42.1,38.0,29.98,WSW,250,16.0,16.0,86,0.00,,,0.00,weatherlink.com 1.10,2013-04-05 11:51:00,
2013-04-05 08:06:00,42.2,38.0,29.98,SW,235,8.0,13.0,85,0.00,,,0.00,weatherlink.com 1.10,2013-04-05 12:06:00,
2013-04-05 08:36:00,42.0,38.0,29.96,WSW,241,8.0,15.0,87,0.00,,,0.00,weatherlink.com 1.10,2013-04-05 12:36:00,
2013-04-05 08:51:00,41.6,39.0,29.95,West,266,5.0,12.0,90,0.00,,,0.00,weatherlink.com 1.10,2013-04-05 12:51:00,
2013-04-05 09:21:00,41.3,39.0,29.95,SW,228,11.0,11.0,92,0.00,,,0.00,weatherlink.com 1.10,2013-04-05 13:21:00,
2013-04-05 09:36:00,41.5,40.0,29.94,WSW,240,6.0,9.0,93,0.00,,,0.00,weatherlink.com 1.10,2013-04-05 13:36:00,
2013-04-05 09:51:00,41.4,40.0,29.94,WSW,243,4.0,7.0,93,0.01,,,0.01,weatherlink.com 1.10,2013-04-05 13:51:00,
2013-04-05 10:06:00,41.5,40.0,29.93,WSW,255,4.0,7.0,94,0.01,,,0.01,weatherlink.com 1.10,2013-04-05 14:06:00,
2013-04-05 10:21:00,41.5,40.0,29.91,WSW,249,4.0,6.0,94,0.02,,,0.02,weatherlink.com 1.10,2013-04-05 14:21:00,
2013-04-05 10:40:00,41.5,40.0,29.91,SW,236,3.0,5.0,94,0.02,,,0.02,weatherlink.com 1.10,2013-04-05 14:40:00,
2013-04-05 10:52:00,41.6,40.0,29.90,WSW,250,4.0,6.0,95,0.01,,,0.02,weatherlink.com 1.10,2013-04-05 14:52:00,
2013-04-05 11:37:00,41.4,40.0,29.87,West,264,1.0,4.0,95,0.00,,,0.02,weatherlink.com 1.10,2013-04-05 15:37:00,
2013-04-05 11:52:00,41.4,40.0,29.87,West,259,1.0,4.0,96,0.01,,,0.03,weatherlink.com 1.10,2013-04-05 15:52:00,
2013-04-05 12:07:00,41.3,40.0,29.85,West,262,2.0,3.0,96,0.02,,,0.04,weatherlink.com 1.10,2013-04-05 16:07:00,
2013-04-05 12:22:00,41.3,40.0,29.84,West,269,0.0,2.0,96,0.02,,,0.04,weatherlink.com 1.10,2013-04-05 16:22:00,
2013-04-05 12:37:00,41.1,40.0,29.83,West,269,1.0,2.0,96,0.02,,,0.05,weatherlink.com 1.10,2013-04-05 16:37:00,
2013-04-05 12:52:00,41.2,40.0,29.81,West,273,0.0,1.0,96,0.02,,,0.05,weatherlink.com 1.10,2013-04-05 16:52:00,
2013-04-05 13:07:00,41.4,40.0,29.79,NNE,13,1.0,2.0,96,0.01,,,0.05,weatherlink.com 1.10,2013-04-05 17:07:00,
2013-04-05 13:22:00,41.7,41.0,29.78,NE,47,1.0,2.0,96,0.01,,,0.05,weatherlink.com 1.10,2013-04-05 17:22:00,
2013-04-05 13:37:00,42.3,42.0,29.76,East,89,1.0,3.0,97,0.00,,,0.05,weatherlink.com 1.10,2013-04-05 17:37:00,
2013-04-05 13:52:00,42.6,42.0,29.75,ENE,61,1.0,3.0,96,0.00,,,0.05,weatherlink.com 1.10,2013-04-05 17:52:00,
2013-04-05 14:37:00,44.6,44.0,29.72,East,79,2.0,4.0,96,0.00,,,0.05,weatherlink.com 1.10,2013-04-05 18:37:00,
2013-04-05 14:52:00,44.4,43.0,29.70,NE,56,5.0,5.0,95,0.00,,,0.05,weatherlink.com 1.10,2013-04-05 18:52:00,
2013-04-05 15:22:00,46.7,46.0,29.69,ENE,61,2.0,5.0,96,0.00,,,0.05,weatherlink.com 1.10,2013-04-05 19:22:00,
2013-04-05 15:37:00,47.7,46.0,29.68,NE,42,1.0,3.0,95,0.00,,,0.05,weatherlink.com 1.10,2013-04-05 19:37:00,
2013-04-05 15:52:00,47.0,45.0,29.67,NE,56,4.0,5.0,93,0.00,,,0.05,weatherlink.com 1.10,2013-04-05 19:52:00,
2013-04-05 16:08:00,47.3,44.0,29.67,North,352,4.0,6.0,89,0.00,,,0.05,weatherlink.com 1.10,2013-04-05 20:08:00,
2013-04-05 16:23:00,47.8,44.0,29.67,NE,52,4.0,7.0,87,0.00,,,0.05,weatherlink.com 1.10,2013-04-05 20:23:00,
2013-04-05 16:38:00,47.6,44.0,29.66,ENE,76,4.0,9.0,88,0.00,,,0.05,weatherlink.com 1.10,2013-04-05 20:38:00,
2013-04-05 16:53:00,47.5,44.0,29.66,ENE,71,6.0,7.0,88,0.00,,,0.05,weatherlink.com 1.10,2013-04-05 20:53:00,
2013-04-05 17:08:00,47.3,44.0,29.66,East,79,3.0,6.0,87,0.00,,,0.05,weatherlink.com 1.10,2013-04-05 21:08:00,
2013-04-05 17:23:00,47.7,44.0,29.66,ENE,66,0.0,5.0,86,0.00,,,0.05,weatherlink.com 1.10,2013-04-05 21:23:00,
2013-04-05 17:38:00,47.9,44.0,29.66,East,82,2.0,4.0,85,0.00,,,0.05,weatherlink.com 1.10,2013-04-05 21:38:00,
2013-04-05 17:53:00,48.0,44.0,29.66,ENE,72,2.0,3.0,85,0.00,,,0.05,weatherlink.com 1.10,2013-04-05 21:53:00,
2013-04-05 18:08:00,48.0,44.0,29.66,ENE,74,1.0,3.0,85,0.00,,,0.05,weatherlink.com 1.10,2013-04-05 22:08:00,
2013-04-05 18:23:00,47.9,44.0,29.67,WNW,293,0.0,5.0,85,0.00,,,0.05,weatherlink.com 1.10,2013-04-05 22:23:00,
2013-04-05 18:38:00,45.6,42.0,29.68,SSE,162,2.0,5.0,87,0.00,,,0.05,weatherlink.com 1.10,2013-04-05 22:38:00,
2013-04-05 18:53:00,43.6,41.0,29.68,SSE,148,1.0,5.0,90,0.00,,,0.05,weatherlink.com 1.10,2013-04-05 22:53:00,
2013-04-05 19:08:00,42.5,40.0,29.68,WSW,249,0.0,3.0,92,0.00,,,0.05,weatherlink.com 1.10,2013-04-05 23:08:00,
2013-04-05 19:23:00,41.7,40.0,29.69,WSW,239,4.0,5.0,94,0.00,,,0.05,weatherlink.com 1.10,2013-04-05 23:23:00,
2013-04-05 19:38:00,42.1,41.0,29.70,WSW,240,5.0,9.0,95,0.00,,,0.05,weatherlink.com 1.10,2013-04-05 23:38:00,
2013-04-05 19:53:00,42.1,41.0,29.71,West,276,9.0,12.0,95,0.00,,,0.05,weatherlink.com 1.10,2013-04-05 23:53:00,
2013-04-05 20:08:00,42.2,41.0,29.72,West,259,12.0,17.0,96,0.00,,,0.05,weatherlink.com 1.10,2013-04-06 00:08:00,
2013-04-05 20:23:00,42.4,41.0,29.73,WNW,285,8.0,15.0,96,0.00,,,0.05,weatherlink.com 1.10,2013-04-06 00:23:00,
2013-04-05 20:38:00,42.6,41.0,29.74,West,273,11.0,12.0,95,0.00,,,0.05,weatherlink.com 1.10,2013-04-06 00:38:00,
2013-04-05 20:53:00,42.7,41.0,29.75,West,278,6.0,11.0,94,0.00,,,0.05,weatherlink.com 1.10,2013-04-06 00:53:00,
2013-04-05 21:08:00,42.5,40.0,29.74,West,272,8.0,11.0,91,0.00,,,0.05,weatherlink.com 1.10,2013-04-06 01:08:00,
2013-04-05 21:23:00,43.0,40.0,29.74,WNW,284,8.0,13.0,88,0.00,,,0.05,weatherlink.com 1.10,2013-04-06 01:23:00,
2013-04-05 21:38:00,42.6,39.0,29.75,WNW,282,5.0,10.0,87,0.00,,,0.05,weatherlink.com 1.10,2013-04-06 01:38:00,
2013-04-05 21:53:00,41.9,39.0,29.75,NW,318,4.0,6.0,88,0.00,,,0.05,weatherlink.com 1.10,2013-04-06 01:53:00,
2013-04-05 22:08:00,42.9,38.0,29.77,NW,311,10.0,15.0,82,0.00,,,0.05,weatherlink.com 1.10,2013-04-06 02:08:00,
2013-04-05 22:23:00,43.5,38.0,29.78,NNW,333,10.0,17.0,80,0.00,,,0.05,weatherlink.com 1.10,2013-04-06 02:23:00,
2013-04-05 22:38:00,44.0,36.0,29.79,NW,312,14.0,17.0,73,0.00,,,0.05,weatherlink.com 1.10,2013-04-06 02:38:00,
2013-04-05 22:53:00,44.4,34.0,29.80,NW,326,11.0,15.0,68,0.00,,,0.05,weatherlink.com 1.10,2013-04-06 02:53:00,
2013-04-05 23:08:00,44.4,33.0,29.81,North,354,11.0,18.0,64,0.00,,,0.05,weatherlink.com 1.10,2013-04-06 03:08:00,
2013-04-05 23:23:00,44.1,32.0,29.82,NNW,335,10.0,17.0,63,0.00,,,0.05,weatherlink.com 1.10,2013-04-06 03:23:00,
2013-04-05 23:38:00,43.5,32.0,29.83,NNW,340,10.0,21.0,65,0.00,,,0.05,weatherlink.com 1.10,2013-04-06 03:38:00,
2013-04-05 23:53:00,42.7,31.0,29.84,NNE,20,8.0,23.0,64,0.00,,,0.05,weatherlink.com 1.10,2013-04-06 03:53:00,